Location: Myrnam
(53.6612°N, 111.2289°W)
Time: 12:57:10
(UTC+00:00)

CAS-4B - Visible Passes

Search period start: 05 December 2023 00:00
Search period end: 15 December 2023 00:00
Orbit: 494 x 508 km, 43.0° (Epoch: 05 December)

Date Brightness Start Highest point End Pass type
(mag) Time Alt. Az. Time Alt. Az. Time Alt. Az.
05 Dec ? 00:23:58 10° SW 00:26:31 17° S 00:29:03 10° SE visible
05 Dec ? 02:02:56 10° SW 02:04:57 14° SSW 02:05:16 14° S visible
06 Dec ? 00:02:05 10° SW 00:04:39 17° S 00:07:13 10° SE visible
06 Dec ? 01:41:09 10° SW 01:43:05 13° SSW 01:44:38 11° S visible
07 Dec ? 01:19:20 10° SW 01:21:12 13° SSW 01:23:03 10° SSE visible
08 Dec ? 00:57:30 10° SW 00:59:17 13° SSW 01:01:04 10° S visible
09 Dec ? 00:35:39 10° SW 00:37:21 13° SSW 00:39:02 10° S visible
10 Dec ? 00:13:47 10° SW 00:15:23 12° SSW 00:16:59 10° S visible
10 Dec ? 23:51:54 10° SW 23:53:24 12° SSW 23:54:54 10° S visible
